[[{"header":{"parameterUnit":"m.s-1","parameterCategory":1,"la1":30.2991,"la2":30.254,"lo1":-89.0895,"lo2":-89.0444,"dy":0.0017,"dx":0.0017,"nx":28,"ny":28,"refTime":"2025-01-26T09:00:00:Z","depth":0,"parameterNumber":2,"parameterNumberName":"U-component_of_WINDS"},"data":[0,0,0,0,0,0,0,0,0,0,0,0,0,0,0,0,0,0,0,0,0,0,0,0,0,0,0,0,0,0,0,0,0,0,0,0,0,0,0,0,0,0,0,0,0,0,0,0,0,0,0,0,0,0,0,0,0,0,-3.7322,-3.7323,0,-3.7436,-3.7437,-3.7438,-3.7348,-3.7344,-3.734,-3.7337,-3.7454,-3.7461,-3.7468,0,0,0,0,0,0,0,0,0,0,0,0,0,-3.7027,-3.7033,-3.7322,-3.7323,-3.7325,-3.7435,-3.7437,-3.7439,-3.7349,-3.7344,-3.7339,-3.7335,-3.7452,-3.746,-3.7468,0,0,0,0,0,0,0,0,0,0,0,0,0,-3.715,-3.7035,-3.7321,-3.7293,-3.7292,-3.7435,-3.7437,-3.7439,-3.735,-3.7344,-3.7338,-3.7333,-3.745,-3.7459,-3.7469,-3.7647,0,0,-3.75,-3.7505,0,0,0,0,0,0,0,0,-3.7143,-3.7161,-3.7296,-3.7295,-3.7294,-3.7372,-3.7376,-3.7509,-3.7351,-3.7328,-3.7337,-3.733,-3.7432,-3.7443,-3.7477,-3.7653,-3.7658,-3.7501,-3.7507,-3.7512,-3.7514,0,0,0,0,0,0,0,-3.7135,-3.7155,-3.7367,-3.7298,-3.7297,-3.7275,-3.7286,-3.7401,-3.7411,-3.7329,-3.7323,-3.7338,-3.743,-3.7467,-3.7479,-3.766,-3.7501,-3.751,-3.7516,-3.752,-3.7988,-3.7994,0,0,0,0,0,0,-3.7129,-3.7149,-3.7363,-3.737,-3.7203,-3.7285,-3.7297,-3.7353,-3.7409,-3.7412,-3.7343,-3.7333,-3.7453,-3.7467,-3.7483,-3.7695,-3.7511,-3.7521,-3.7527,-3.7981,-3.7989,-3.7996,0,0,0,0,0,0,-3.7123,-3.7149,-3.7359,-3.7258,-3.7283,-3.7296,-3.7359,-3.7358,-3.7395,-3.7419,-3.7421,-3.7379,-3.7449,-3.7469,-3.7607,-3.7698,-3.7525,-3.7535,-3.7974,-3.7984,-3.7992,-3.8121,0,0,0,0,0,0,-3.7115,-3.7147,-3.7215,-3.726,-3.7289,-3.7481,-3.7365,-3.7364,-3.7413,-3.7401,-3.7454,-3.7457,-3.7446,-3.7593,-3.7617,-3.7709,-3.7542,-3.7966,-3.7978,-3.7989,-3.8109,-3.8134,-3.8155,0,0,0,0,0,-3.7105,-3.7246,-3.7218,-3.7245,-3.7373,-3.7486,-3.7503,-3.7487,-3.742,-3.7488,-3.7504,-3.7455,-3.7684,-3.7607,-3.7634,-3.773,-3.796,-3.7975,-3.7989,-3.8098,-3.8129,-3.8155,0,0,0,0,0,0,-3.7211,-3.7252,-3.7221,-3.7382,-3.7431,-3.7471,-3.7556,-3.752,-3.7589,-3.7576,-3.7554,-3.7567,-3.7712,-3.7735,-3.7649,-3.7906,-3.7811,-3.7832,-3.7886,-3.7915,-3.7938,-3.7929,-3.7551,0,0,0,0,0,-3.7254,-3.7342,-3.7372,-3.7511,-3.7537,-3.7543,-3.7592,-3.7575,-3.7626,-3.7646,-3.7672,-3.7723,-3.7806,-3.7862,-3.794,-3.8112,-3.8122,-3.8191,-3.8214,-3.8233,-3.8251,-3.8344,-3.8375,-3.8043,-3.8043,-3.8043,0,0,-3.7342,-3.7375,-3.7432,-3.7533,-3.757,-3.7662,-3.7561,-3.7663,-3.7731,-3.7662,-3.7794,-3.7815,-3.7871,-3.8027,-3.8097,-3.805,-3.8345,-3.8251,-3.8266,-3.8274,-3.8362,-3.8393,-3.8421,-3.8053,-3.8051,-3.8049,0,0,-3.7549,-3.7583,-3.7702,-3.7741,-3.7797,-3.78,-3.7829,-3.7875,-3.7886,-3.8018,-3.7968,-3.8049,-3.8193,-3.8235,-3.8275,-3.85,-3.8458,-3.8526,-3.8648,-3.8739,-3.8765,-3.8788,-3.8868,-3.8897,-3.8544,-3.8544,-3.8544,0,-3.7652,-3.7788,-3.7768,-3.7874,-3.7921,-3.7862,-3.7983,-3.8022,-3.8101,-3.8135,-3.8082,-3.8262,-3.8295,-3.846,-3.8515,-3.8549,-3.8582,-3.852,-3.8762,-3.8785,-3.8807,-3.8883,-3.8914,-3.8552,-3.8551,-3.855,-3.855,0,-3.7911,-3.8007,-3.8097,-3.8175,-3.8231,-3.8344,-3.8342,-3.8402,-3.8381,-3.839,-3.8526,-3.8564,-3.8649,-3.8687,-3.8668,-3.885,-3.882,-3.8765,-3.867,-3.8847,-3.8918,-3.8947,-3.8564,-3.8561,-3.8558,-3.8556,0,0,-3.8189,-3.8255,-3.8288,-3.8323,-3.8381,-3.8455,-3.8566,-3.8649,-3.8701,-3.8758,-3.885,-3.8974,-3.8924,-3.8969,-3.8954,-3.9034,-3.921,-3.897,-3.8971,-3.9013,-3.9414,-3.9455,-3.9489,-3.9183,-3.9188,-3.9193,-3.941,0,-3.8399,-3.8591,-3.8577,-3.8759,-3.8847,-3.8793,-3.889,-3.8936,-3.8948,-3.9025,-3.9037,-3.9125,-3.9052,-3.908,-3.9156,-3.9173,-3.9291,-3.9157,-3.9269,-3.9274,-3.9257,-3.9527,-3.957,-3.9773,-3.9438,-3.9442,-3.9446,0,-3.867,-3.8736,-3.8927,-3.8972,-3.9009,-3.9096,-3.9171,-3.9245,-3.9297,-3.9299,-3.9351,-3.9323,-3.9435,-3.9338,-3.9492,-3.9402,-3.9447,-3.9462,-3.947,-3.948,-3.937,-3.9544,-3.9837,-3.9868,-3.9489,-3.9486,-3.9483,0,-3.8854,-3.899,-3.9122,-3.9153,-3.921,-3.9272,-3.9299,-3.9345,-3.9396,-3.9462,-3.9495,-3.9573,-3.9617,-3.9678,-3.9672,-3.9602,-3.983,-3.9731,-3.9836,-3.9836,-3.9886,-3.9883,-4.0191,-3.9916,-3.9915,-3.9914,-3.9914,0,-3.909,-3.9209,-3.9205,-3.9286,-3.9418,-3.9401,-3.9532,-3.9551,-3.9593,-3.9677,-3.9636,-3.9716,-3.9703,-3.9784,-3.978,-3.9909,-3.9929,-3.9934,-3.9932,-3.9938,-3.9938,-3.9968,-3.9953,-3.9922,-3.9921,-3.9919,-3.9918,0,-3.9317,-3.932,-3.9459,-3.9501,-3.9515,-3.961,-3.9646,-3.9723,-3.9731,-3.9838,-3.9863,-3.9876,-3.9968,-3.9968,-4.0074,-4.0072,-4.023,-4.0211,-4.0213,-4.0209,-4.0313,-4.0303,-4.0651,-4.0696,-4.0391,-4.0394,-4.0397,0,-3.9468,-3.9558,-3.9609,-3.9663,-3.9693,-3.9779,-3.9831,-3.9818,-3.9874,-3.9941,-4.001,-4.0099,-4.0169,-4.032,-4.0339,-4.042,-4.0403,-4.052,-4.0415,-4.0419,-4.0405,-4.04,-4.0409,-4.054,-4.0543,-4.0546,-4.0548,0,-3.9735,-3.9732,-3.9808,-3.9885,-3.9948,-4.0008,-4.0064,-4.011,-4.0103,-4.0168,-4.0263,-4.0317,-4.0425,-4.0514,-4.0593,-4.062,-4.0585,-4.0581,-4.061,-4.0617,-4.0614,-4.0617,-4.0268,-4.0573,-4.0571,-4.0569,-4.0567,-4.0566,-3.9928,-4.0006,-4.0055,-4.0141,-4.0182,-4.0235,-4.0309,-4.0327,-4.0405,-4.0492,-4.0479,-4.0585,-4.0635,-4.0737,-4.0771,-4.0854,-4.0813,-4.0855,-4.0865,-4.0875,-4.0887,-4.0601,-4.0868,-4.0867,-4.0867,-4.0866,-4.0866,0,-4.0194,-4.0222,-4.0302,-4.0381,-4.0449,-4.0409,-4.0468,-4.0528,-4.0621,-4.0671,-4.0741,-4.085,-4.0936,-4.0963,-4.1046,-4.1107,-4.1093,-4.113,-4.1125,-4.1132,-4.0918,-4.0885,-4.114,-4.114,-4.114,-4.114,-4.114,-4.114,-4.034,-4.0469,-4.0472,-4.0621,-4.0649,-4.0752,-4.0789,-4.0838,-4.0878,-4.1001,-4.1073,-4.1089,-4.113,-4.1216,-4.1294,-4.1299,-4.1332,-4.1376,-4.1375,-4.1175,-4.1147,-4.1121,-4.109,-4.1384,-4.1384,-4.1582,-4.1584,-4.1586]},{"header":{"parameterUnit":"m.s-1","parameterCategory":1,"la1":30.2991,"la2":30.254,"lo1":-89.0895,"lo2":-89.0444,"dy":0.0017,"dx":0.0017,"nx":28,"ny":28,"refTime":"2025-01-26T09:00:00:Z","depth":0,"parameterNumber":3,"parameterNumberName":"V-component_of_WINDS"},"data":[0,0,0,0,0,0,0,0,0,0,0,0,0,0,0,0,0,0,0,0,0,0,0,0,0,0,0,0,0,0,0,0,0,0,0,0,0,0,0,0,0,0,0,0,0,0,0,0,0,0,0,0,0,0,0,0,0,0,0.6605,0.6605,0,0.656,0.6559,0.6558,0.655,0.655,0.6551,0.6551,0.6499,0.6497,0.6495,0,0,0,0,0,0,0,0,0,0,0,0,0,0.6682,0.668,0.6605,0.6605,0.6604,0.656,0.6559,0.6558,0.655,0.655,0.6551,0.6551,0.6499,0.6497,0.6495,0,0,0,0,0,0,0,0,0,0,0,0,0,0.6643,0.668,0.6606,0.6595,0.6594,0.656,0.6559,0.6558,0.655,0.655,0.6551,0.6552,0.65,0.6498,0.6495,0.6467,0,0,0.6487,0.6486,0,0,0,0,0,0,0,0,0.6646,0.6641,0.6597,0.6596,0.6594,0.6561,0.6567,0.6527,0.655,0.6566,0.6551,0.6552,0.6519,0.6515,0.6505,0.6464,0.6462,0.6487,0.6485,0.6484,0.6483,0,0,0,0,0,0,0,0.6648,0.6642,0.6587,0.6596,0.6594,0.6591,0.6586,0.6559,0.654,0.6565,0.6564,0.6559,0.6518,0.6507,0.6503,0.6461,0.6487,0.6484,0.6483,0.6482,0.6396,0.6396,0,0,0,0,0,0,0.6653,0.6645,0.6589,0.6586,0.6622,0.6589,0.6584,0.6571,0.654,0.6536,0.6559,0.6559,0.6511,0.6506,0.6501,0.6466,0.6484,0.6481,0.648,0.6397,0.6396,0.6395,0,0,0,0,0,0,0.6655,0.6649,0.659,0.6615,0.6607,0.6587,0.6573,0.657,0.6559,0.6535,0.6531,0.6551,0.6512,0.6505,0.6476,0.6464,0.648,0.6478,0.6398,0.6397,0.6396,0.6396,0,0,0,0,0,0,0.6657,0.6649,0.6639,0.6615,0.6606,0.6567,0.6572,0.6568,0.6555,0.6555,0.6527,0.6523,0.6512,0.648,0.6473,0.6461,0.6476,0.6399,0.6397,0.6396,0.6397,0.6395,0.6394,0,0,0,0,0,0.666,0.664,0.6639,0.6632,0.6594,0.6566,0.6561,0.6549,0.6554,0.6543,0.6528,0.6524,0.6467,0.6477,0.647,0.6456,0.6399,0.6398,0.6396,0.6398,0.6396,0.6394,0,0,0,0,0,0,0.6661,0.6637,0.6635,0.6607,0.6589,0.6565,0.6551,0.6548,0.6527,0.6527,0.6512,0.6506,0.6478,0.6464,0.6476,0.6428,0.6433,0.643,0.6437,0.6435,0.6434,0.6437,0.6474,0,0,0,0,0,0.6659,0.664,0.6619,0.6596,0.6587,0.6571,0.6559,0.6552,0.6532,0.6524,0.6506,0.6486,0.6463,0.6449,0.6427,0.6396,0.6389,0.6383,0.6382,0.638,0.6377,0.636,0.6357,0.639,0.639,0.639,0,0,0.6652,0.6636,0.6625,0.6596,0.6581,0.6561,0.6564,0.6543,0.6527,0.652,0.6491,0.6478,0.6455,0.6425,0.641,0.6412,0.6367,0.6378,0.6378,0.6375,0.6358,0.6355,0.6352,0.6389,0.6389,0.639,0,0,0.663,0.6617,0.6596,0.6582,0.6561,0.655,0.6545,0.6522,0.6514,0.6486,0.648,0.6461,0.6422,0.6406,0.6392,0.6366,0.6361,0.6359,0.635,0.6333,0.633,0.6328,0.6317,0.6314,0.6356,0.6356,0.6356,0,0.6624,0.6595,0.6585,0.6565,0.6552,0.6546,0.6525,0.6511,0.6483,0.6473,0.6477,0.6429,0.6413,0.6379,0.6373,0.6362,0.6355,0.6361,0.6332,0.6329,0.6327,0.6317,0.6313,0.6356,0.6356,0.6356,0.6356,0,0.6588,0.6568,0.6554,0.6529,0.6515,0.6493,0.648,0.6466,0.6461,0.6449,0.6421,0.6402,0.6376,0.6367,0.6361,0.6332,0.6334,0.6335,0.634,0.6323,0.6314,0.631,0.6356,0.6356,0.6356,0.6356,0,0,0.6563,0.6535,0.653,0.6519,0.6496,0.6479,0.6458,0.6435,0.6423,0.6404,0.6385,0.6353,0.6354,0.6339,0.6331,0.6316,0.6296,0.6318,0.6318,0.6314,0.6263,0.6262,0.6257,0.6293,0.6293,0.6292,0.6264,0,0.6537,0.6501,0.6492,0.646,0.6441,0.6437,0.6418,0.6401,0.639,0.6371,0.6359,0.6337,0.634,0.6331,0.6316,0.6302,0.6285,0.6304,0.6274,0.6273,0.6279,0.6252,0.6251,0.6225,0.6261,0.626,0.6259,0,0.6502,0.6485,0.6451,0.6431,0.6423,0.6406,0.6385,0.6367,0.6348,0.6341,0.6325,0.6319,0.6295,0.6303,0.627,0.6283,0.627,0.6261,0.626,0.6255,0.6264,0.6246,0.6217,0.6213,0.6254,0.6254,0.6254,0,0.6486,0.6455,0.643,0.6421,0.6397,0.6386,0.6375,0.6357,0.6344,0.6324,0.6315,0.6293,0.628,0.6262,0.625,0.6257,0.6217,0.6224,0.6209,0.621,0.62,0.62,0.6167,0.6194,0.6194,0.6194,0.6194,0,0.6458,0.6437,0.6423,0.6408,0.6385,0.6375,0.6352,0.6341,0.6325,0.6307,0.6301,0.6284,0.6269,0.625,0.624,0.6213,0.6207,0.62,0.6198,0.62,0.6201,0.619,0.6191,0.6193,0.6193,0.6194,0.6194,0,0.6435,0.6426,0.6399,0.638,0.6374,0.6358,0.6341,0.6325,0.6316,0.6293,0.6286,0.627,0.6247,0.6234,0.6203,0.6197,0.6167,0.6166,0.6174,0.6173,0.6159,0.616,0.6117,0.611,0.6142,0.6142,0.6142,0,0.6417,0.6402,0.6381,0.637,0.636,0.6341,0.6328,0.6318,0.6305,0.6282,0.6269,0.6247,0.6228,0.6191,0.6175,0.6152,0.6149,0.6136,0.6146,0.6149,0.6148,0.6148,0.6146,0.6134,0.6133,0.6133,0.6133,0,0.6385,0.6382,0.6364,0.6345,0.6331,0.6315,0.6299,0.6289,0.6277,0.6262,0.6239,0.6225,0.6195,0.6172,0.6148,0.6136,0.6132,0.6131,0.6126,0.6127,0.6132,0.6128,0.6168,0.6131,0.6131,0.6131,0.6131,0.6131,0.6364,0.635,0.6334,0.6315,0.6302,0.6288,0.6273,0.6262,0.6243,0.622,0.6215,0.6191,0.6172,0.6141,0.6128,0.6108,0.611,0.6103,0.6101,0.6099,0.6098,0.6137,0.6104,0.6104,0.6104,0.6104,0.6104,0,0.6331,0.6321,0.6304,0.6283,0.6267,0.6268,0.625,0.6237,0.6217,0.62,0.6183,0.6157,0.6135,0.6118,0.6095,0.6083,0.608,0.6077,0.6077,0.6074,0.6098,0.6104,0.6079,0.6079,0.6079,0.6079,0.6079,0.6079,0.6312,0.6288,0.6283,0.6253,0.6243,0.622,0.621,0.6197,0.6184,0.6156,0.6138,0.6129,0.6112,0.6088,0.6068,0.6063,0.6055,0.6051,0.6046,0.6069,0.6072,0.6074,0.608,0.605,0.605,0.6023,0.6023,0.6023]}]]